CAPE
447 539 321 217 271 395 522 551 554 570 581 586 598 593 596 621 831 909 954 968 996 1004 1007 1057 1120 1150 1168 1168 1206 1184 1135 1082 1040 1054 1148 1077 1047 1156 1326 1488 1586 1644 1691 1751 1864 1874 1660 1933 2098 2346 2677 2737 2814 2843 2891 3412 3256 3130 2880 3047 2886 2916 2242
352 423 391 219 214 339 482 550 568 575 579 586 597 595 600 633 810 891 953 968 989 970 969 1009 1220 1147 1158 1180 1239 1246 1192 1164 1191 1517 1201 1139 1440 1171 1236 1351 1465 1527 1596 1658 1740 1693 1706 1866 2164 2158 2442 2886 2920 2700 2753 2968 3110 3001 2856 2756 2741 2604 3046
302 446 397 274 186 303 450 529 561 578 578 572 580 589 601 640 782 874 928 962 986 970 956 981 1257 1142 1141 1162 1253 1311 1305 1270 1249 1418 1242 1112 1265 1193 1212 1340 1384 1403 1440 1512 1574 1527 1888 1877 2084 2040 2212 2448 2816 2804 2882 2969 3266 3009 2888 2620 2807 2858 2467
291 397 435 390 209 256 402 516 561 561 552 553 564 582 604 634 743 850 897 941 968 961 954 961 1156 1151 1157 1196 1250 1350 1370 1296 1295 1451 1321 1220 1327 1285 1292 1350 1390 1380 1459 1522 1693 1763 1962 2009 2061 2032 3095 2333 2557 2829 3031 3278 3361 3427 3271 3014 2894 2892 2972
454 382 379 394 312 347 385 475 534 530 522 531 556 583 600 618 674 825 891 950 953 970 963 972 1050 1185 1194 1208 1256 1330 1416 1362 1317 1493 1416 1351 1570 1491 1390 1418 1442 1438 1478 1556 1677 2139 2136 2096 2027 1984 2268 2479 2414 2597 3090 3309 3486 3644 3605 3353 3245 3076 3098
516 356 390 355 355 380 428 466 550 557 539 536 553 590 601 623 651 806 889 1017 1004 1018 998 978 976 1257 1201 1224 1242 1236 1362 1446 1355 1552 1538 1413 1643 1628 1563 1514 1568 1610 1554 1652 1861 1894 2000 2067 2072 2037 1932 2277 2405 2469 2709 3156 3479 3586 3634 3399 3392 3326 3339
532 528 432 380 16 271 481 505 577 636 622 595 589 598 610 631 713 796 858 922 1032 1042 1038 1021 978 1091 1154 1176 1204 1202 1183 1337 1424 1420 1572 1521 1542 1689 1663 1589 1768 1645 1684 1823 1849 1818 1869 2016 2081 2080 1992 2119 2518 2405 2524 2798 3206 3472 3569 3371 3342 3219 3194
824 516 554 510 378 374 474 570 592 685 725 692 665 650 632 658 665 794 833 880 895 1011 1059 1057 1034 1055 1108 1132 1157 1138 1091 1138 1254 1365 1467 1542 1533 1664 1629 1629 1756 1701 1758 1765 1839 1808 1757 1854 1991 2074 2043 2079 2261 2387 2315 2490 2751 2978 3258 3264 3157 3091 3008
862 870 705 761 497 428 439 536 731 700 810 811 729 687 688 701 690 815 855 878 864 966 1046 1070 1070 1062 1116 1120 1125 1128 1078 1032 1092 1200 1317 1439 1491 1536 1559 1617 1655 1729 1753 1683 1735 1826 1741 1703 1749 1921 1890 1892 2199 2270 2252 2246 2310 2568 2889 2992 2945 2895 2846
781 808 958 812 751 492 495 509 590 679 746 722 871 864 777 668 698 784 872 912 898 922 989 1064 1073 1062 1101 1127 1125 1131 1105 1049 1002 1086 1214 1294 1368 1434 1504 1544 1576 1670 1728 1742 1740 1734 1786 1740 1745 1742 1820 1800 1941 2058 2242 2237 2189 2243 2384 2598 2653 2664 2713
1239 979 869 898 806 726 522 542 580 640 651 613 712 758 808 887 784 761 815 1008 1034 950 950 1070 1084 1078 1093 1116 1127 1144 1164 1132 1060 1006 1113 1181 1242 1298 1366 1437 1470 1470 1526 1627 1698 1772 1828 1886 1864 1848 1812 1723 1817 1834 1928 2112 2169 2186 2154 2207 2308 2348 2386
1358 1351 1266 1029 914 810 697 624 586 607 668 654 638 649 658 678 899 871 851 1050 1128 1065 999 1103 1148 1097 1098 1113 1106 1124 1143 1160 1113 1028 998 1075 1132 1194 1235 1278 1313 1341 1381 1410 1463 1509 1548 1590 1588 1532 1522 1570 1753 1786 1787 1796 1865 1954 2045 2040 2059 2084 2148
1197 1286 1300 1338 1192 957 822 727 697 666 635 632 585 571 605 617 690 820 886 954 1174 1232 1180 1199 1192 1113 1106 1113 1110 1098 1112 1129 1107 1037 974 1046 1067 1070 1125 1178 1205 1228 1260 1295 1321 1370 1414 1413 1412 1403 1320 1340 1432 1604 1695 1675 1607 1657 1666 1698 1770 1829 1964
984 1014 1062 1096 1120 1182 1072 841 704 660 596 567 621 596 525 548 708 863 866 968 1130 1294 1324 1342 1304 1177 1132 1117 1106 1081 1076 1080 1081 1058 1001 949 977 1014 1034 1087 1122 1152 1173 1187 1171 1118 1073 1108 1152 1174 1055 1123 1150 1262 1486 1502 1489 1485 1496 1508 1518 1555 1624
922 823 777 805 881 988 1060 1074 964 705 530 488 545 567 543 606 721 813 970 990 1158 1341 1342 1424 1382 1309 1234 1174 1146 1126 1087 1073 1078 1076 1039 1148 914 945 996 1038 1070 1082 1100 1104 1117 1086 1007 970 966 912 860 998 1053 1054 1093 1210 1234 1290 1372 1390 1409 1394 1430
886 843 824 731 721 822 868 925 986 941 780 590 441 530 617 651 731 799 876 1014 1131 1322 1385 1375 1431 1436 1403 1331 1258 1198 1145 1115 1118 1096 1043 980 958 939 990 1005 1036 1070 1072 1074 1071 1061 1011 967 921 829 715 796 842 827 796 848 1022 1405 1947 2064 1625 1332 1274
802 816 721 681 662 680 714 819 856 876 867 782 656 449 496 635 686 778 857 910 1086 1264 1364 1405 1430 1456 1472 1454 1386 1354 1321 1234 1185 1131 1078 1013 993 998 984 992 1006 1020 1054 1062 1049 1037 1015 1007 1022 931 751 623 630 632 637 595 801 1379 1147 1377 2040 2257 1441
764 761 796 742 740 754 726 746 738 703 711 750 735 660 499 452 510 599 713 844 933 1153 1284 1375 1429 1455 1478 1484 1463 1292 1163 1181 1235 1266 1189 1092 1033 1029 1028 1028 1022 1031 1022 1020 1014 992 968 968 991 958 803 610 533 517 486 468 809 617 704 819 954 2017 2243
847 907 871 809 710 702 704 688 660 741 716 654 548 562 508 512 459 542 668 775 891 932 1172 1306 1362 1426 1495 1473 1386 1261 1218 1132 1000 1038 1202 1257 1122 1089 1059 1031 1022 1014 1022 1020 996 968 944 968 997 932 759 568 480 446 426 463 440 124 361 507 676 862 2736
831 700 748 735 694 686 617 660 727 666 671 714 686 593 635 619 522 481 544 663 704 762 980 1151 1308 1364 1382 1313 1210 1202 1193 1290 1269 1197 1162 1222 1209 1140 1134 1127 1159 1186 1193 1190 999 920 898 943 990 932 745 580 517 541 553 503 504 342 312 546 769 994 1370
672 597 598 670 721 761 735 712 728 698 636 690 729 693 626 638 608 517 458 452 530 638 847 986 1090 1106 1116 1139 1123 1084 1032 1045 1200 1224 1231 1261 1238 1195 1145 1168 1207 1263 1308 1343 1266 1056 977 956 925 812 648 516 464 509 592 580 501 598 792 866 936 1003 1903
714 740 668 654 619 622 680 715 800 718 589 594 609 722 716 719 630 609 528 472 483 641 798 956 1010 1026 980 957 963 964 946 934 986 1059 1166 1231 1249 1268 1247 1154 1132 1201 1246 1306 1344 1284 1167 1130 997 774 572 449 468 523 644 481 452 480 668 817 913 919 1183
806 780 717 621 469 455 558 724 735 691 668 496 575 682 707 716 673 616 617 573 526 467 621 701 805 919 994 1008 946 845 840 892 925 1019 1048 1105 1275 1353 1336 1190 1011 1040 1094 1152 1230 1254 1197 1166 1126 926 806 1096 912 699 539 530 486 480 552 690 782 907 971
772 635 670 478 395 435 411 505 717 777 752 551 524 608 694 704 744 784 695 699 586 639 709 739 769 828 878 926 923 850 822 903 978 1076 1152 1124 1273 1321 1300 1284 1241 1117 953 949 1032 1107 1101 1073 1066 993 864 1019 755 790 887 762 649 597 595 608 733 834 918
710 633 636 467 398 370 318 651 898 923 840 708 619 551 655 770 858 887 853 851 896 886 916 897 930 948 947 927 940 948 965 1004 1084 1161 1191 1092 960 1016 1086 1168 1251 1190 1002 885 915 1016 1028 913 910 884 792 582 484 839 554 611 748 742 754 893 1048 922 944
553 484 485 452 423 423 340 781 916 1120 996 847 734 563 691 863 856 1072 1094 1042 1001 1084 1132 1071 1033 838 892 863 871 876 884 909 968 1032 1044 907 734 800 896 972 994 982 986 941 813 717 727 689 637 699 572 372 381 370 330 284 525 709 904 1086 1141 1326 1310
565 535 524 461 478 503 528 700 918 972 1002 764 631 657 763 762 1022 1139 1234 1286 1246 1111 1094 1064 970 1006 1081 1171 1198 1188 1200 1194 1160 1105 1014 954 1028 1056 1069 980 1006 1021 1002 946 881 884 880 779 562 396 458 460 489 487 605 634 701 886 1008 1154 1262 1423 1543
615 626 598 517 540 611 668 704 856 961 820 748 642 662 750 730 806 778 984 1109 1254 1205 1196 1228 1270 1220 1206 1229 1243 1257 1245 1248 1258 1274 1296 1288 1232 1301 1335 1310 1191 1056 1028 919 861 858 738 698 633 694 901 1121 1123 966 979 1049 1082 1106 1038 1092 1280 1358 1473
722 637 601 673 792 744 795 806 840 756 852 640 717 680 713 697 631 653 615 661 598 551 530 482 481 503 462 420 429 572 835 1049 1166 1190 1131 1099 1076 1177 1296 1303 1254 1182 1108 991 949 954 1102 1202 1247 1310 1243 1189 1182 1214 1291 1365 1354 1332 1275 1237 1249 1304 1315
639 589 574 595 708 724 721 777 731 515 772 800 740 757 785 790 635 571 526 459 338 373 437 526 523 526 428 405 398 411 402 491 630 774 859 940 1001 1046 1040 1142 1162 1040 1065 1072 1079 1078 1115 1257 1251 1271 1251 1260 1186 1068 996 957 844 758 762 766 798 976 1154
662 462 550 580 620 591 703 807 142 794 995 749 726 785 824 686 576 554 513 545 562 599 532 508 515 508 556 495 504 557 559 504 532 567 614 679 752 682 813 948 994 965 1184 1060 941 1025 1098 1072 1124 1093 966 853 789 646 556 506 476 483 521 571 632 806 968
517 478 583 600 615 532 531 585 514 648 834 828 694 686 663 597 570 567 481 512 585 578 526 540 555 523 418 395 378 388 386 458 309 358 450 555 566 569 609 834 1028 1156 1100 1113 1053 1035 969 930 799 672 414 317 300 283 280 254 314 382 442 505 627 762 891
404 392 386 491 579 599 638 595 488 536 660 727 718 842 796 794 627 531 500 539 522 559 512 424 432 476 449 440 407 315 317 246 315 335 210 377 401 555 787 943 940 773 785 793 625 440 317 256 257 261 233 175 171 154 173 178 209 271 372 451 547 737 794
322 275 295 378 446 457 443 536 596 616 514 635 747 714 699 736 805 805 694 612 553 482 481 454 419 470 512 528 540 537 488 447 407 378 396 316 458 463 440 502 406 306 297 323 306 309 312 298 172 156 168 180 192 190 231 289 370 428 502 516 318 460 471
342 308 305 351 342 353 350 355 414 447 369 402 540 574 578 600 543 828 837 606 560 658 674 639 668 655 606 597 537 468 457 464 477 445 410 389 386 368 379 398 345 358 362 353 315 238 177 202 185 156 176 230 238 226 208 297 270 316 331 381 279 23 130
354 343 273 175 174 152 177 221 333 450 490 504 521 539 474 372 394 582 640 517 533 533 503 464 497 495 458 439 386 381 375 376 407 410 411 395 417 441 374 276 330 382 371 290 193 178 213 191 194 181 211 233 240 267 323 292 269 213 212 138 59 0 0
426 322 167 102 72 83 114 133 270 392 445 412 366 331 351 413 398 444 360 347 393 462 652 548 506 384 326 290 270 273 336 352 332 306 305 308 348 376 435 442 409 406 366 240 203 198 196 211 214 216 196 144 128 122 121 130 156 155 128 108 76 101 133
175 155 45 130 179 162 142 135 171 184 251 261 288 287 289 392 394 388 365 319 353 478 551 518 437 414 381 348 339 334 330 323 322 331 270 260 305 340 359 390 398 329 274 212 172 144 127 124 0 0 0 0 0 24 48 82 137 137 136 133 133 123 47
Wind_Speed
9 8 10 10 9 8 9 8 8 4 0 1 1 2 3 4 5 7 9 10 10 12 13 13 12 12 10 11 10 9 9 9 9 8 8 8 8 6 7 8 7 8 7 7 7 7 8 7 6 6 5 5 5 5 5 5 4 5 4 4 4 4 3
9 8 10 12 11 11 11 10 9 7 3 1 1 3 5 4 5 6 8 9 9 10 12 13 13 12 11 11 11 10 10 10 9 10 9 9 10 9 8 7 8 9 8 8 7 7 7 7 6 5 5 5 5 4 4 4 4 4 4 3 3 4 4
6 6 8 11 14 14 13 12 10 8 6 3 2 3 4 4 5 4 6 8 9 11 13 12 12 11 11 10 10 10 10 10 9 8 8 8 8 8 9 8 9 8 9 8 8 7 7 7 6 6 5 5 5 4 4 4 4 4 3 3 3 3 3
9 8 8 11 15 17 15 13 10 9 8 5 2 2 4 5 6 6 6 7 8 10 11 12 12 11 11 10 9 10 10 10 8 8 8 8 8 8 8 9 9 9 9 9 8 8 7 6 6 5 5 5 5 4 4 3 4 3 4 4 3 2 2
13 13 12 12 14 15 15 13 12 10 9 8 5 4 5 6 7 8 7 8 8 8 10 11 13 12 13 11 11 12 10 9 9 8 8 9 9 8 8 8 8 8 9 9 8 8 8 8 7 7 7 6 5 4 4 4 4 3 3 3 1 1 1
13 13 12 12 14 15 14 13 12 11 11 10 9 8 7 7 8 7 7 8 9 11 13 13 12 12 11 11 11 11 11 10 9 8 7 8 8 8 9 9 8 8 7 7 7 7 7 7 7 7 8 8 7 6 6 5 4 3 2 1 1 1 1
13 14 13 13 nan 16 15 15 15 15 14 14 14 12 11 9 7 7 9 9 9 9 11 12 12 13 13 14 12 11 10 10 10 9 9 9 8 8 8 9 9 8 8 7 6 6 6 7 7 6 7 7 7 7 7 6 6 4 3 2 3 2 2
16 17 17 17 16 19 19 20 19 18 20 21 19 15 10 9 10 10 8 9 10 11 12 12 13 14 15 15 14 11 11 12 12 12 11 10 10 9 9 9 9 8 9 7 7 6 5 5 6 6 5 5 5 6 6 7 8 7 6 6 6 5 2
17 16 15 17 19 22 26 29 30 32 34 31 24 18 14 14 11 9 9 10 11 11 11 13 13 15 16 15 15 13 14 14 14 14 12 11 11 10 10 10 9 9 8 8 7 6 6 5 5 5 4 4 5 4 5 5 6 6 7 8 8 8 6
20 17 16 18 21 24 27 29 30 28 26 29 31 31 26 19 14 13 12 11 12 11 12 14 15 16 17 16 16 16 16 15 15 15 14 13 14 12 12 11 10 9 8 7 8 7 7 6 5 5 5 5 5 4 4 4 4 5 5 6 6 6 7
19 19 20 19 20 23 25 26 27 26 23 27 29 25 22 23 20 17 14 13 13 14 15 15 17 16 17 17 17 17 16 15 16 15 15 14 16 14 14 13 13 12 9 9 9 9 8 8 7 6 6 6 5 5 4 4 3 3 3 3 3 3 4
19 19 20 21 21 22 20 21 25 27 25 26 24 22 20 18 17 18 17 14 14 17 18 18 18 17 17 17 17 17 17 17 17 16 15 16 16 16 16 16 15 14 14 12 11 11 10 9 9 8 7 7 7 6 5 5 4 4 4 4 4 3 3
18 19 20 21 21 21 22 20 23 28 30 27 24 23 23 22 21 19 18 18 17 18 19 20 19 19 18 18 17 18 17 18 17 17 18 18 18 19 19 18 16 16 15 15 13 12 11 11 10 11 10 9 9 8 7 7 7 7 7 6 5 4 3
17 19 22 22 21 21 19 19 22 27 30 28 25 26 28 26 26 23 19 18 19 20 20 22 21 20 19 19 19 19 19 19 19 20 20 21 21 20 19 19 18 17 18 18 15 14 13 12 12 12 12 10 10 10 10 10 9 9 8 7 6 5 4
18 19 22 23 21 22 20 18 20 22 23 23 24 27 31 31 29 28 25 23 22 21 19 21 21 21 21 21 20 20 22 23 23 23 22 22 22 20 19 19 19 19 19 19 17 17 16 15 15 13 12 12 12 11 12 12 11 10 9 7 7 8 7
20 20 21 21 21 21 21 19 20 22 22 20 18 21 27 30 29 27 27 27 26 25 24 24 22 23 24 23 24 26 26 25 25 25 25 24 22 21 20 20 20 20 20 19 19 19 19 18 17 15 14 13 13 13 15 14 14 10 7 9 11 11 11
22 21 21 21 22 21 20 19 19 19 20 20 18 17 20 25 28 29 29 29 28 26 26 26 25 25 26 28 33 34 34 30 27 27 25 25 25 25 23 22 23 22 22 22 21 21 21 21 18 17 17 15 14 13 15 14 14 9 9 9 9 12 13
26 24 21 22 21 20 19 19 18 18 17 17 19 18 18 22 26 28 28 29 28 27 28 28 27 27 26 27 29 28 27 28 29 27 25 26 25 26 26 26 25 24 24 24 23 23 24 22 20 19 18 18 16 15 15 14 13 10 10 10 10 11 13
28 24 19 18 19 19 19 19 18 17 18 18 18 17 18 23 27 27 31 31 32 32 30 31 33 34 36 34 30 27 25 25 26 26 25 25 26 27 28 27 25 24 24 23 24 25 24 22 22 21 20 19 17 16 17 16 13 12 11 12 13 13 14
27 25 20 18 19 19 18 17 17 17 19 19 18 17 18 21 24 30 35 37 38 36 35 34 32 32 30 27 27 27 27 26 25 23 23 26 28 29 28 27 24 24 24 24 24 23 23 23 23 22 21 20 19 18 18 18 15 14 15 15 18 21 19
27 24 19 19 21 20 18 16 15 17 20 22 21 21 20 20 24 36 39 37 38 37 34 31 31 30 29 27 28 28 27 25 23 22 27 32 32 30 28 27 26 25 25 25 24 24 24 25 25 25 24 23 22 21 20 22 26 24 23 26 28 27 24
26 22 18 17 19 19 18 17 16 18 19 24 26 24 23 25 27 32 37 37 37 37 35 32 30 30 32 31 31 30 27 25 23 28 30 27 26 25 25 26 26 25 28 31 31 31 32 32 31 31 31 31 29 26 22 28 31 29 28 26 24 23 21
25 20 14 15 17 17 17 16 16 16 19 23 26 21 24 23 24 27 33 37 37 38 37 35 33 34 34 34 33 31 29 27 26 28 26 23 23 23 24 24 26 28 32 31 30 31 32 33 34 34 34 35 35 32 30 28 29 27 25 22 19 20 21
23 20 14 13 14 15 15 15 14 14 20 21 24 21 20 24 25 25 29 37 41 42 42 41 39 37 36 35 34 34 32 29 28 27 26 24 23 22 22 25 29 30 32 32 34 35 36 36 36 36 35 34 34 32 30 29 30 29 23 19 18 17 21
21 17 12 11 12 13 12 13 12 14 16 17 22 25 22 24 26 27 28 33 39 42 43 43 41 39 37 37 38 37 34 31 29 28 27 25 25 26 28 29 30 33 37 38 40 37 33 34 35 35 34 31 30 31 33 30 27 26 24 21 20 25 26
20 18 14 12 10 9 10 13 13 13 15 16 19 20 20 19 20 23 25 29 35 41 41 41 40 39 41 42 40 37 34 33 30 28 28 27 27 29 29 33 36 39 41 41 40 37 32 32 34 33 30 33 33 33 32 32 32 34 32 23 21 25 29
18 16 15 14 11 10 11 13 15 12 15 15 15 17 17 18 18 21 24 27 32 37 39 42 44 43 42 42 41 38 36 36 33 30 29 28 27 30 33 39 43 46 45 44 43 41 38 39 40 41 41 38 36 36 37 36 35 33 33 29 24 21 26
20 19 17 17 15 12 11 14 17 14 15 15 17 17 16 13 12 16 23 27 33 37 39 41 42 42 43 42 40 38 36 36 35 32 29 30 35 36 39 45 47 48 48 48 46 44 42 43 43 44 45 44 44 43 41 40 39 35 37 35 30 27 24
22 20 20 20 18 15 15 16 18 17 15 15 19 19 17 15 13 13 15 21 27 34 41 44 43 42 42 40 38 36 36 36 35 35 36 39 42 44 47 50 53 53 52 51 48 46 47 49 50 48 47 46 46 46 43 41 41 42 39 37 35 34 35
23 22 20 19 18 18 19 19 18 17 18 17 17 18 18 16 15 13 12 12 12 16 25 33 39 43 43 40 37 37 39 40 42 44 41 41 42 41 42 44 47 50 53 53 48 46 48 51 49 47 46 47 47 46 44 42 41 44 44 41 39 40 42
24 24 22 20 20 22 24 23 19 17 19 18 16 14 14 13 12 13 12 9 9 9 10 12 17 24 31 36 37 37 37 40 43 41 37 34 32 29 28 29 31 35 41 47 48 47 48 50 47 46 46 45 43 42 41 40 42 42 46 48 45 43 46
27 28 25 20 19 22 26 25 19 14 17 19 18 15 14 12 9 9 7 6 7 9 10 10 10 12 16 18 20 20 20 26 31 28 23 22 23 23 20 23 22 22 25 33 37 39 43 43 43 42 42 40 39 39 38 40 42 43 42 43 45 44 47
27 28 28 25 22 22 24 25 22 17 15 16 16 16 16 15 11 9 8 9 10 10 11 12 11 11 11 12 12 13 15 20 21 18 14 16 18 19 19 19 19 18 18 21 26 30 32 35 36 39 40 39 38 39 40 41 43 42 41 40 39 35 35
28 31 31 29 27 26 25 24 24 22 17 13 13 15 17 16 15 15 13 12 13 12 12 13 12 13 13 14 13 14 15 18 24 20 17 19 19 18 19 19 18 16 14 13 15 18 20 23 26 29 31 33 35 36 36 36 36 34 31 30 26 23 22
29 32 32 32 31 31 28 25 24 23 20 15 11 13 15 14 12 15 17 15 15 14 13 14 16 14 15 14 15 18 19 19 20 19 19 20 22 19 16 13 14 16 15 13 10 11 14 15 16 17 18 21 22 24 25 25 25 22 22 21 17 nan 20
29 32 33 33 32 32 30 29 26 25 24 21 16 16 16 15 16 18 18 17 16 15 16 15 15 14 14 14 15 16 17 17 18 16 16 17 18 18 17 22 23 19 15 15 20 23 20 17 15 15 16 19 18 17 18 20 19 21 22 19 nan nan nan
28 29 31 32 nan nan 32 31 29 28 27 25 23 23 22 22 21 20 20 18 17 17 17 16 17 16 16 16 16 16 16 16 16 16 16 16 17 18 17 19 21 24 23 20 20 21 25 26 25 24 21 19 18 20 24 24 25 24 23 23 nan 22 22
27 29 nan 30 31 31 32 32 31 30 29 27 26 25 24 25 24 22 21 20 19 19 19 19 18 19 18 16 16 18 18 17 18 16 17 17 16 16 15 16 18 18 22 23 23 25 26 26 nan nan nan nan nan nan nan nan 23 23 24 24 24 24 nan
Wind_Direction
220 243 241 228 221 227 235 247 262 266 313 51 294 255 220 200 188 185 183 184 175 176 175 176 171 173 167 164 164 166 162 160 159 149 142 133 126 120 119 123 122 120 126 125 120 118 123 137 144 141 149 152 156 157 161 176 178 178 185 186 184 186 176
206 217 235 228 217 217 225 239 251 257 251 170 198 258 225 216 209 195 183 185 181 181 184 181 180 175 175 170 170 168 163 153 149 147 143 139 135 128 118 114 114 116 118 119 124 128 134 133 143 143 141 153 149 155 162 165 164 167 180 187 190 181 182
257 251 249 228 213 211 219 226 235 250 260 235 203 235 232 218 223 223 202 193 187 186 190 189 185 182 181 182 177 167 162 158 153 149 144 142 130 127 126 124 118 119 116 121 128 128 137 135 138 143 145 150 154 161 166 173 171 182 191 213 208 199 182
250 272 262 228 212 210 214 221 232 237 244 254 251 259 241 224 218 219 215 204 196 195 195 192 194 190 188 190 184 177 169 166 163 161 154 148 137 138 142 136 132 131 129 121 120 119 122 117 117 123 127 141 146 161 177 170 183 196 210 227 219 225 205
230 244 241 223 217 221 220 220 226 234 246 253 241 232 240 232 223 218 218 211 202 198 197 199 197 196 192 194 191 188 184 184 179 172 166 160 157 159 152 144 142 134 123 129 127 122 115 108 105 106 109 114 124 146 150 165 172 188 205 233 222 231 163
235 239 253 242 221 220 223 222 224 232 242 249 246 233 226 232 218 215 219 225 211 199 199 201 202 203 200 197 196 197 197 193 191 186 177 174 175 173 162 153 151 144 146 137 146 132 123 116 110 103 101 108 112 118 128 136 143 158 167 183 119 130 133
236 235 238 247 nan 229 223 221 218 221 228 233 233 226 223 221 221 213 214 216 222 218 205 201 201 202 199 203 197 203 204 204 203 197 194 191 186 182 172 170 166 163 162 178 159 159 146 131 123 117 112 108 107 102 103 100 105 109 112 96 89 106 108
238 237 231 235 244 246 233 222 217 217 222 225 228 228 226 217 214 215 215 215 219 217 212 207 202 201 204 204 202 200 205 207 208 209 204 201 196 188 189 186 182 180 186 181 173 178 160 147 152 146 132 125 111 102 98 92 89 87 80 75 73 84 98
230 234 237 238 243 244 239 233 230 226 220 214 212 211 213 214 216 213 212 218 217 221 216 212 207 206 207 208 208 203 206 210 212 212 211 207 203 196 197 197 194 198 198 188 187 182 175 172 163 156 157 146 139 130 120 103 95 87 75 71 65 66 68
228 223 232 239 244 247 244 240 241 244 248 241 226 206 193 193 201 210 212 214 217 218 219 217 211 209 209 211 211 213 214 214 216 217 214 211 207 204 204 207 205 209 204 195 196 191 180 180 179 175 172 167 166 164 143 122 109 97 84 74 69 70 70
236 227 218 223 240 253 258 255 254 255 257 253 251 246 222 193 189 197 207 214 218 216 219 219 217 213 211 212 214 216 218 219 222 221 219 216 214 210 211 210 211 216 211 208 201 197 196 190 197 190 193 188 186 180 166 147 140 124 118 113 109 96 100
235 233 226 221 221 237 257 266 265 264 261 256 253 251 254 242 215 197 199 205 215 221 220 219 219 216 215 215 216 215 218 221 224 225 225 223 220 218 216 215 214 218 217 215 209 208 205 201 202 205 201 200 196 201 189 183 182 177 173 178 187 184 170
229 233 235 230 225 223 231 244 258 262 264 264 257 242 240 248 246 230 212 206 211 219 222 222 222 221 218 217 216 216 216 219 221 223 226 226 224 222 222 221 221 224 224 224 220 219 214 213 209 206 210 205 209 210 208 203 205 201 203 205 210 213 216
223 229 232 233 231 229 230 235 247 258 261 265 261 246 233 232 242 247 239 227 219 219 223 222 223 223 222 221 217 216 216 217 219 221 224 226 227 225 225 225 226 227 227 229 228 226 225 223 223 219 219 218 219 218 222 223 222 222 220 225 230 237 240
221 224 227 228 229 229 233 237 241 247 257 259 255 245 236 232 235 240 241 241 238 233 226 225 226 226 225 223 220 219 218 218 218 219 222 225 229 229 229 230 231 231 231 229 228 228 229 229 231 229 227 226 229 230 236 241 242 247 251 254 256 256 250
221 223 224 227 226 226 224 231 241 248 252 257 260 253 240 231 232 239 242 241 242 240 237 236 232 229 226 224 221 220 221 222 221 221 222 224 225 227 229 232 234 235 236 233 231 229 230 230 230 232 230 228 230 236 241 247 251 263 300 284 266 267 263
227 228 225 228 230 226 224 225 232 243 252 258 265 262 246 235 233 235 239 239 241 243 242 242 239 238 237 235 232 229 223 219 221 225 226 226 224 224 227 229 232 235 236 236 235 234 234 235 235 234 235 238 238 241 246 249 257 284 292 294 298 275 271
228 231 225 223 226 225 222 225 230 238 245 256 266 268 257 245 240 239 240 238 236 238 241 243 243 241 238 235 236 236 239 238 232 227 229 231 230 230 229 229 231 233 236 237 238 238 240 241 242 241 243 244 246 247 248 250 257 277 281 285 289 284 271
228 234 232 226 222 222 226 230 234 239 247 251 256 257 254 253 248 241 237 234 230 230 233 235 236 233 229 226 226 229 235 241 243 241 239 240 241 239 237 236 235 235 236 240 242 244 247 249 251 251 251 252 251 250 250 251 257 270 279 282 287 295 288
231 234 232 225 225 225 226 236 242 249 257 259 264 263 254 248 244 239 237 234 230 230 230 234 236 241 242 242 242 236 232 236 242 247 247 247 248 248 247 245 244 242 243 244 248 253 255 257 259 259 259 259 258 255 255 258 258 266 274 276 267 258 255
232 230 225 220 221 225 225 230 240 249 257 258 260 260 258 254 247 239 239 237 234 232 235 236 239 241 243 245 243 241 238 238 238 240 243 243 243 247 250 251 250 251 251 252 252 252 253 255 256 255 255 255 256 258 261 259 252 254 261 265 271 274 270
229 229 224 224 222 225 223 225 233 242 247 254 259 261 252 251 252 249 241 238 236 234 236 237 237 238 241 241 240 241 241 243 241 241 244 247 247 248 250 252 254 256 255 255 254 253 254 253 256 257 257 257 256 256 255 256 250 257 263 272 276 276 266
229 230 231 227 230 228 228 227 234 248 248 254 256 267 273 261 258 252 243 237 234 235 235 237 235 235 239 240 239 239 239 241 244 247 249 249 250 249 250 252 253 254 257 261 260 260 258 256 254 254 256 256 256 258 256 255 244 243 256 265 271 268 264
228 227 225 223 231 231 229 234 237 252 250 245 252 251 264 269 257 251 240 233 231 232 234 236 236 235 238 239 240 239 238 240 246 250 250 249 252 254 252 251 250 253 253 256 255 252 250 251 250 247 248 253 257 259 260 257 249 241 232 237 252 265 265
221 225 220 224 230 225 223 228 232 258 262 264 252 251 243 252 253 247 239 236 235 237 240 240 240 239 238 239 239 239 239 240 246 252 253 251 249 249 250 251 254 252 251 249 249 251 254 257 258 254 250 249 249 251 255 255 256 262 254 242 242 260 267
213 211 203 199 211 221 222 227 227 260 266 255 251 256 262 259 251 242 241 237 235 234 239 242 244 243 239 239 240 239 239 241 246 250 251 249 250 252 254 255 255 258 258 258 258 257 257 257 258 260 254 247 252 256 259 255 247 245 245 244 246 258 269
207 203 194 189 192 201 218 228 238 246 261 250 242 252 261 259 250 244 242 240 239 237 235 236 237 238 239 240 239 237 236 239 245 250 249 250 255 256 255 255 256 258 261 263 263 261 256 252 251 250 250 247 245 249 251 250 250 250 249 242 243 254 272
203 201 196 197 197 208 214 221 228 233 253 249 244 244 245 251 255 246 242 240 239 238 238 239 238 236 237 240 240 239 239 243 245 246 248 249 252 255 255 254 256 259 260 261 262 262 259 255 253 252 250 248 246 247 249 248 246 246 246 246 248 249 252
204 199 198 198 203 210 218 218 220 215 225 235 238 240 243 246 244 241 236 234 237 237 238 238 238 237 237 239 240 239 238 238 241 242 242 248 254 259 260 260 259 258 257 258 257 257 256 253 252 252 251 248 246 246 247 248 249 250 253 255 258 262 264
200 198 198 198 204 213 214 213 210 217 222 227 237 238 242 248 249 245 243 232 224 227 231 233 233 234 235 239 241 243 241 241 240 241 244 249 255 262 268 270 269 264 260 257 253 250 250 249 249 250 250 250 249 247 246 248 250 252 255 258 258 261 263
199 196 197 194 196 207 210 206 208 221 226 226 238 238 235 238 248 245 241 224 218 225 227 226 227 229 229 229 232 236 238 238 239 238 235 239 249 256 266 275 278 270 262 258 252 247 245 244 245 248 250 251 252 251 249 250 251 253 257 260 257 256 262
200 196 193 189 190 201 207 213 218 220 221 215 216 215 221 226 225 241 232 217 225 235 237 234 221 211 209 210 214 215 222 229 227 224 223 231 243 253 257 272 280 279 269 263 258 255 253 252 250 250 251 252 256 257 257 256 256 255 258 259 259 259 262
201 197 196 193 191 201 208 210 215 209 205 207 208 213 223 229 225 227 226 217 211 226 235 237 235 229 218 212 207 211 227 234 229 223 215 225 239 251 256 263 275 276 268 264 262 259 259 256 253 252 252 256 259 260 259 257 257 258 260 261 265 265 264
203 199 200 202 201 207 214 215 211 204 205 209 205 215 224 223 215 213 218 216 215 218 234 241 240 240 237 231 224 221 229 240 245 245 239 234 237 242 249 258 262 258 257 261 269 270 266 264 261 260 260 259 259 260 259 258 257 255 253 250 252 258 259
208 204 203 204 204 208 214 215 214 210 211 215 216 218 222 221 220 222 228 231 233 223 223 237 244 244 243 239 234 234 234 237 244 248 249 249 245 242 243 245 240 242 245 241 235 251 276 275 268 267 262 264 266 269 266 262 257 248 240 238 235 nan 258
213 211 207 205 207 209 213 213 214 213 217 219 221 222 218 221 231 228 221 221 224 229 240 239 240 238 240 239 239 238 237 237 239 238 241 244 243 241 245 248 244 230 237 240 231 238 238 251 262 266 264 260 252 248 268 274 271 268 262 260 nan nan nan
223 219 213 210 nan nan 211 211 213 215 217 219 224 225 221 220 226 232 228 225 224 220 224 234 241 239 237 239 241 242 244 244 246 243 241 240 238 236 242 253 246 241 237 237 241 244 247 249 252 257 263 271 271 260 259 269 277 281 285 282 nan 279 280
228 226 nan 217 218 217 216 216 215 216 217 218 222 226 227 228 229 233 235 233 232 230 235 241 244 244 241 240 240 243 242 241 246 246 248 243 236 234 238 246 256 250 240 243 248 250 251 251 nan nan nan nan nan nan nan nan 275 279 279 281 282 283 nan